Weather in Alexandria

Egypt     31°12′52″N   29°56′44″E
temp.,
°C
wind,
m/s
gust,
m/s
humid.,
%
clouds,
%
prec.,
mm/h
press.,
hPa
HPBL,
m
8 may, sat
sat823:00+22e34604 0.0 101597
02:00+21ese47555 0.0 1013129
05:00+21ese510480 0.0 1012191
08:00+26se58333 0.0 1013224
11:00+34s352171 0.0 1012526
14:00+33ne3530100 0.0 1010450
17:00+30ne56405 0.0 1009143
20:00+27e6124714 0.0 1009129
9 may, sun
sun923:00+28e6835100 0.0 101076
02:00+28nw3334100 0.0 100919
05:00+22wnw61080100 0.0 1010222
08:00+23wnw5879100 0.0 1011309
11:00+24wnw6773100 0.0 1012442
14:00+24nnw5773100 0.0 1012451
17:00+23nw677770 0.0 1011409
20:00+22nnw5782100 0.0 1012401
10 may, mon
mon1023:00+21nnw58810 0.0 1012439
02:00+21nw46810 0.0 1012388
05:00+20nnw57810 0.0 1012389
08:00+22nnw45730 0.0 1012473
11:00+23nnw55660 0.0 1013558
14:00+23nnw66680 0.0 1012584
17:00+22nnw78720 0.0 1011554
20:00+21nnw68750 0.0 1012524
11 may, tue
tue1123:00+20nnw56760 0.0 1012504
02:00+20nnw56780 0.0 1011482
05:00+20nnw57760 0.0 1011505
08:00+21nnw55680 0.0 1012661
11:00+22nnw44610 0.0 1012703
14:00+22nnw55600 0.0 1012707
17:00+22nnw55670 0.0 1011670
20:00+20nnw56740 0.0 1011619
12 may, wed
wed1223:00+20nnw45774 0.0 1012578
02:00+19n34783 0.0 1011529
05:00+19n33790 0.0 1011440
08:00+21nnw34700 0.0 1012622
11:00+22n44620 0.0 1012633
14:00+23nnw66601 0.0 1012644
17:00+22nnw67640 0.0 1011577
20:00+21n45694 0.0 1012394